This is the latest recevied weather packets stored in our database for station/object KC9Q. If no packets are shown the sender has not sent any weather packets the latest 10 day(s).
| Time | Temp. | Humidity | Pressure | Rain* | Wind** | Luminosity | Snow |
|---|---|---|---|---|---|---|---|
| 1777913640 | 26.11° C | 39% | 1009.4 hPa | 0 mm | - | 954 W/m² | - |
| 1777913337 | 26.11° C | 39% | 1009.4 hPa | 0 mm | - | 954 W/m² | - |
| 1777913034 | 25.56° C | 39% | 1009.5 hPa | 0 mm | - | 945 W/m² | - |
| 1777912729 | 25.56° C | 38% | 1009.7 hPa | 0 mm | - | 949 W/m² | - |
| 1777912426 | 25.56° C | 37% | 1009.7 hPa | 0 mm | - | 933 W/m² | - |
| 1777912122 | 25.56° C | 38% | 1009.7 hPa | 0 mm | - | 932 W/m² | - |
| 1777911818 | 25.56° C | 39% | 1009.8 hPa | 0 mm | - | 916 W/m² | - |
| 1777911515 | 25.56° C | 43% | 1009.9 hPa | 0 mm | - | 913 W/m² | - |
| 1777911212 | 25° C | 43% | 1010 hPa | 0 mm | - | 901 W/m² | - |
| 1777910909 | 25° C | 45% | 1009.8 hPa | 0 mm | - | 747 W/m² | - |
| 1777910606 | 25° C | 43% | 1010 hPa | 0 mm | - | 713 W/m² | - |
| 1777910303 | 25° C | 42% | 1010 hPa | 0 mm | - | 584 W/m² | - |
| 1777910000 | 25° C | 45% | 1010 hPa | 0 mm | - | 780 W/m² | - |
| 1777909697 | 24.44° C | 44% | 1010 hPa | 0 mm | - | 81 W/m² | - |
| 1777909394 | 24.44° C | 45% | 1010.2 hPa | 0 mm | - | 84 W/m² | - |
| 1777909092 | 23.89° C | 46% | 1010.2 hPa | 0 mm | - | 95 W/m² | - |
| 1777908789 | 23.89° C | 47% | 1010.2 hPa | 0 mm | - | 92 W/m² | - |
| 1777908486 | 23.89° C | 47% | 1010.3 hPa | 0 mm | - | 91 W/m² | - |
| 1777908183 | 23.89° C | 47% | 1010.5 hPa | 0 mm | - | 87 W/m² | - |
| 1777907879 | 23.33° C | 49% | 1010.3 hPa | 0 mm | - | 98 W/m² | - |
| 1777907575 | 23.33° C | 50% | 1010.5 hPa | 0 mm | - | 94 W/m² | - |
| 1777907270 | 22.78° C | 51% | 1010.3 hPa | 0 mm | - | 87 W/m² | - |
| 1777906967 | 22.78° C | 50% | 1010.4 hPa | 0 mm | - | 88 W/m² | - |
| 1777906665 | 22.78° C | 50% | 1010.4 hPa | 0 mm | - | 88 W/m² | - |
| 1777906361 | 22.22° C | 53% | 1010.7 hPa | 0 mm | - | 128 W/m² | - |
* Rain latest hour (hover to see other rain measurements)
** Current wind speed in m/s (hover to see current wind gust speed)